Tracking 30685 objects as of 18-Jun-2025
HD Live streaming from Space Station
objects crossing your sky now

FALCON 9 R/B

Track FALCON 9 R/B now!
10-day predictions


NORAD ID: 43612
Int'l Code: 2018-069B
Perigee: 269.0 km
Apogee: 15,928.6 km
Inclination: 27.0 °
Period: 288.7 minutes
Semi major axis: 14469 km
RCS: Unknown
Launch date: September 10, 2018
Source: United States (US)
Launch site: AIR FORCE EASTERN TEST RANGE (AFETR)

Note: This is a ROCKET BODY
Your satellite tracking list
Your tracking list is empty




NASA's NSSDC Master Catalog

Two Line Element Set (TLE):
1 43612U 18069B   25168.24429718  .00013825  00000-0  13581-2 0  9998
2 43612  27.0339 139.6335 5411122 356.9591   0.7137  4.98780588115165
Source of the keplerian elements: AFSPC